Regional Weather Roundup
Issued by NWS

Home | Current Version | Previous Version | Text Only | Print | Product List | Glossary On
Versions: 1 2 3 4 5 6 7 8 9 10 11 12 13 14 15 16 17 18 19 20 21 22 23 24 25 26 27 28 29 30 31 32 33 34 35 36 37 38 39 40 41 42 43 44 45 46 47 48 49 50
000
ASUS46 KSEW 181210
RWRWA

WASHINGTON REGIONAL WEATHER ROUNDUP
NATIONAL WEATHER SERVICE SEATTLE WA
500 AM PDT SAT APR 18 2015

NOTE:"FAIR" INDICATES FEW OR NO CLOUDS BELOW 12,000 FEET WITH NO
SIGNIFICANT WEATHER AND/OR OBSTRUCTIONS TO VISIBILITY.

WAZ505-507>509-181300-
SEATTLE, TACOMA, EVERETT, AND VICINITY

CITY           SKY/WX    TMP DP  RH WIND       PRES   REMARKS
EVERETT        CLEAR     47  37  68 N6        30.35R
6HR MIN TEMP:  47; 6HR MAX TEMP:  50;

BOEING FIELD   CLEAR     48  40  73 CALM      30.35R
6HR MIN TEMP:  48; 6HR MAX TEMP:  58; 6HR PCP: TRACE;

RENTON         CLEAR     49  42  77 N5        30.34R
6HR MIN TEMP:  48; 6HR MAX TEMP:  55;

SEATAC AIRPORT CLEAR     48  39  71 N9        30.34S
6HR MIN TEMP:  47; 6HR MAX TEMP:  54;

JBLM-MCCHORD   CLEAR     46  43  90 CALM      30.33S
6HR MIN TEMP:  46; 6HR MAX TEMP:  54;

PUYALLUP       DRIZZLE   39  39 100 CALM      30.33R
BREMERTON      CLEAR     46  41  81 N12       30.36S
6HR MIN TEMP:  37; 6HR MAX TEMP:  54;

JBLM-FT LEWIS  CLEAR     45  44  99 W2        30.33R
6HR MIN TEMP:  44; 6HR MAX TEMP:  54;

TACOMA NARROWS CLEAR     49  40  71 N9        30.33S
6HR MIN TEMP:  47; 6HR MAX TEMP:  55;

$$

WAZ001-503-506-510-514-515-181300-
NORTH INTERIOR

CITY           SKY/WX    TMP DP  RH WIND       PRES   REMARKS
BELLINGHAM     CLEAR     42  40  92 CALM      30.35R
6HR MIN TEMP:  41; 6HR MAX TEMP:  50;

FRIDAY HARBOR  CLEAR     41  36  82 VRB3      30.37S
6HR MIN TEMP:  39; 6HR MAX TEMP:  47;

EASTSOUND      CLEAR     50  43  76 N12       30.36R
PORT ANGELES   CLEAR     39  37  92 S5        30.36S
6HR MIN TEMP:  37; 6HR MAX TEMP:  50;

NAS WHIDBEY    CLEAR     45  38  76 N3        30.37R
6HR MIN TEMP:  41; 6HR MAX TEMP:  50;

ARLINGTON      CLEAR     39  34  81 NW3       30.37S
6HR MIN TEMP:  37; 6HR MAX TEMP:  48;

BURLINGTON     CLEAR     46  43  87 N7        30.37R
$$

WAZ020-022-039-040-504-511-512-181300-
SOUTHWEST INTERIOR

CITY           SKY/WX    TMP DP  RH WIND       PRES   REMARKS
SHELTON        MOCLDY    37  35  92 CALM      30.33S FOG
6HR MIN TEMP:  36; 6HR MAX TEMP:  49;

OLYMPIA        CLEAR     45  43  93 N5        30.34R
6HR MIN TEMP:  39; 6HR MAX TEMP:  50;

CHEHALIS       FAIR      41  41 100 NE5       30.33S FOG
KELSO          CLEAR     43  39  87 CALM      30.34S
6HR MIN TEMP:  41; 6HR MAX TEMP:  52;

VANCOUVER      CLEAR     45  41  86 CALM      30.28R
6HR MIN TEMP:  45; 6HR MAX TEMP:  56;

SCAPPOOSE, OR  CLEAR     49  42  77 NW6       30.28R
6HR MIN TEMP:  48; 6HR MAX TEMP:  55;

PORTLAND, OR   CLEAR     49  44  83 NW3       30.29R
6HR MIN TEMP:  47; 6HR MAX TEMP:  57;

$$

WAZ021-516-517-181300-
WASHINGTON COAST

CITY           SKY/WX    TMP DP  RH WIND       PRES   REMARKS
FORKS          CLEAR     38  38 100 CALM      30.33F
6HR MIN TEMP:  38; 6HR MAX TEMP:  48;

HOQUIAM        CLEAR     40  39  97 NE3       30.34R
6HR MIN TEMP:  40; 6HR MAX TEMP:  49;

ASTORIA, OR    PTCLDY    41  39  93 E3        30.32S
6HR MIN TEMP:  41; 6HR MAX TEMP:  51;

$$

WAZ019-023-024-040-518-519-181300-
CASCADE MOUNTAINS AND COLUMBIA GORGE

CITY           SKY/WX    TMP DP  RH WIND       PRES   REMARKS
TROUTDALE, OR  CLEAR     43  40  89 CALM      30.28R
6HR MIN TEMP:  43; 6HR MAX TEMP:  56;

THE DALLES, OR CLEAR     50  40  68 N7        30.24R
6HR MIN TEMP:  48; 6HR MAX TEMP:  63;

$$

WAZ026-027-041>044-520-521-181300-
EAST SLOPES

CITY           SKY/WX    TMP DP  RH WIND       PRES   REMARKS
OMAK           CLEAR     47  27  45 N9        30.29R
6HR MIN TEMP:  47; 6HR MAX TEMP:  58;

WENATCHEE      CLEAR     51  33  50 NW9       30.27R
6HR MIN TEMP:  50; 6HR MAX TEMP:  60;

ELLENSBURG     CLEAR     47  31  53 NW12      30.25R
6HR MIN TEMP:  47; 6HR MAX TEMP:  54;

YAKIMA         CLEAR     42  29  59 W6        30.26R
6HR MIN TEMP:  42; 6HR MAX TEMP:  62;

$$

WAZ028-034-035-181300-
COLUMBIA BASIN

CITY           SKY/WX    TMP DP  RH WIND       PRES   REMARKS
EPHRATA        CLEAR     48  28  46 W6        30.24R
6HR MIN TEMP:  48; 6HR MAX TEMP:  61;

MOSES LAKE     CLEAR     47  30  51 N10       30.25R
6HR MIN TEMP:  47; 6HR MAX TEMP:  59;

PASCO          CLEAR     49  34  56 NE3       30.23R
6HR MIN TEMP:  46; 6HR MAX TEMP:  62;

HERMISTON, OR  CLEAR     35  32  88 S3        30.23R
6HR MIN TEMP:  35; 6HR MAX TEMP:  53;

$$

WAZ036>038-181300-
NORTHEAST WASHINGTON

CITY           SKY/WX    TMP DP  RH WIND       PRES   REMARKS
SPOKANE GEIGER CLEAR     49  23  36 N13       30.18R
6HR MIN TEMP:  45; 6HR MAX TEMP:  53;

SPOKANE FELTS  CLEAR     39  34  82 NE5       30.19R
6HR MIN TEMP:  39; 6HR MAX TEMP:  55;

FAIRCHILD AFB  CLEAR     45  26  48 NW13      30.18R
6HR MIN TEMP:  41; 6HR MAX TEMP:  51; 6HR PCP: TRACE;

COEURDALENE,ID CLEAR     39  34  81 CALM      30.19R
6HR MIN TEMP:  37; 6HR MAX TEMP:  52;

DEER PARK      CLEAR     40  24  53 NW5       30.19R
6HR MIN TEMP:  34; 6HR MAX TEMP:  50;

$$

WAZ029>033-181300-
SOUTHEAST WASHINGTON

CITY           SKY/WX    TMP DP  RH WIND       PRES   REMARKS
PULLMAN        CLEAR     41  34  76 W5        30.19R
6HR MIN TEMP:  34; 6HR MAX TEMP:  46;

LEWISTON, ID   CLEAR     46  36  68 W5        30.18R
6HR MIN TEMP:  44; 6HR MAX TEMP:  55;

WALLA WALLA    CLEAR     50  35  56 S7        30.22R
6HR MIN TEMP:  49; 6HR MAX TEMP:  56;

PENDLETON, OR  CLEAR     39  34  82 SE6       30.23R
6HR MIN TEMP:  39; 6HR MAX TEMP:  52;

$$


USA.gov is the U.S. government's official web portal to all federal, state and local government web resources and services.